LIPX Weather Reports


time (UTC)temp
C
wind
direction
speed
KPH
gust
KPH
rain 1hr
cm
rain 24hr
cm
rain mn
cm
humidity
%
barometer
mb
20260906113003 31 100 1.6 0.0 0.00 0.00 0.00 37 1021.0
20260906104503 30 110 14.5 0.0 0.00 0.00 0.00 42 1022.0
20260906103003 30 110 14.5 0.0 0.00 0.00 0.00 42 1022.0
20260906101502 30 90 1.6 0.0 0.00 0.00 0.00 40 1022.0
20260906100004 30 90 1.6 0.0 0.00 0.00 0.00 40 1022.0
20260906094504 28 90 20.9 0.0 0.00 0.00 0.00 42 1022.0
20260906093004 28 90 20.9 0.0 0.00 0.00 0.00 42 1022.0
20260906091503 28 90 19.3 0.0 0.00 0.00 0.00 42 1022.0
20260906090004 28 90 19.3 0.0 0.00 0.00 0.00 42 1022.0
20260906083004 27 80 19.3 0.0 0.00 0.00 0.00 45 1022.0
20260906073003 27 90 4.8 0.0 0.00 0.00 0.00 57 1021.0
20260906064504 22 0 3.2 0.0 0.00 0.00 0.00 78 1021.0
20260906063004 22 0 3.2 0.0 0.00 0.00 0.00 78 1021.0
20260906061503 21 10 8.0 0.0 0.00 0.00 0.00 77 1020.0
20260906060003 21 10 8.0 0.0 0.00 0.00 0.00 77 1020.0
20260906054503 20 350 4.8 0.0 0.00 0.00 0.00 82 1020.0
20260906053003 20 350 4.8 0.0 0.00 0.00 0.00 82 1020.0
20260906043003 21 340 3.2 0.0 0.00 0.00 0.00 82 1020.0
20260906041503 21 0 3.2 0.0 0.00 0.00 0.00 82 1020.0
20260906040004 21 0 3.2 0.0 0.00 0.00 0.00 82 1020.0
20260906031503 22 20 4.8 0.0 0.00 0.00 0.00 88 1019.0
20260906011503 23 100 4.8 0.0 0.00 0.00 0.00 83 1019.0
20260906004503 23 70 4.8 0.0 0.00 0.00 0.00 83 1019.0
20260906003004 23 70 4.8 0.0 0.00 0.00 0.00 83 1019.0
20260906000004 25 0 1.6 0.0 0.00 0.00 0.00 83 1019.0
20260905234504 25 100 4.8 0.0 0.00 0.00 0.00 83 1019.0
20260905231503 26 110 9.7 0.0 0.00 0.00 0.00 78 1019.0
20260905230004 26 110 9.7 0.0 0.00 0.00 0.00 78 1019.0
20260905223004 26 100 9.7 0.0 0.00 0.00 0.00 78 1018.0
20260905220004 26 100 11.3 0.0 0.00 0.00 0.00 78 1018.0
20260905211503 27 90 8.0 0.0 0.00 0.00 0.00 57 1017.0
20260905204503 27 70 8.0 0.0 0.00 0.00 0.00 54 1017.0
20260905203004 27 70 8.0 0.0 0.00 0.00 0.00 54 1017.0
20260905200004 27 60 9.7 0.0 0.00 0.00 0.00 54 1016.0
20260905194503 27 50 3.2 0.0 0.00 0.00 0.00 51 1016.0
20260905193003 27 50 3.2 0.0 0.00 0.00 0.00 51 1016.0
20260905191503 27 0 1.6 0.0 0.00 0.00 0.00 54 1016.0
20260905184503 30 230 1.6 0.0 0.00 0.00 0.00 42 1015.0
20260905183004 30 230 1.6 0.0 0.00 0.00 0.00 42 1015.0
20260905181503 31 220 4.8 0.0 0.00 0.00 0.00 45 1015.0
20260905180004 31 220 4.8 0.0 0.00 0.00 0.00 45 1015.0
20260905174503 32 240 3.2 0.0 0.00 0.00 0.00 38 1015.0
20260905173004 32 240 3.2 0.0 0.00 0.00 0.00 38 1015.0
20260905170004 33 260 8.0 0.0 0.00 0.00 0.00 34 1015.0
20260905163004 32 240 12.9 0.0 0.00 0.00 0.00 38 1015.0
20260905160003 33 270 9.7 0.0 0.00 0.00 0.00 38 1015.0
20260905154503 33 0 4.8 0.0 0.00 0.00 0.00 38 1015.0
20260905153004 33 0 4.8 0.0 0.00 0.00 0.00 38 1015.0
20260905150004 32 190 9.7 0.0 0.00 0.00 0.00 40 1015.0
20260905144503 32 240 14.5 0.0 0.00 0.00 0.00 40 1015.0
20260905141502 32 220 12.9 0.0 0.00 0.00 0.00 40 1016.0
20260905140004 32 220 12.9 0.0 0.00 0.00 0.00 40 1016.0
20260905134503 32 220 9.7 0.0 0.00 0.00 0.00 43 1016.0
20260905133003 32 220 9.7 0.0 0.00 0.00 0.00 43 1016.0
20260905131504 32 240 11.3 0.0 0.00 0.00 0.00 43 1016.0
20260905130004 32 240 11.3 0.0 0.00 0.00 0.00 43 1016.0
20260905123004 31 240 11.3 0.0 0.00 0.00 0.00 45 1016.0
20260905121503 31 240 11.3 0.0 0.00 0.00 0.00 45 1017.0
20260905120004 31 240 11.3 0.0 0.00 0.00 0.00 45 1017.0
20260905114503 30 230 11.3 0.0 0.00 0.00 0.00 48 1017.0